[[{"header":{"parameterUnit":"m.s-1","parameterCategory":1,"la1":30.2991,"la2":30.254,"lo1":-89.0895,"lo2":-89.0444,"dy":0.0017,"dx":0.0017,"nx":28,"ny":28,"refTime":"2024-10-08T09:00:00:Z","depth":0,"parameterNumber":2,"parameterNumberName":"U-component_of_WINDS"},"data":[0,0,0,0,0,0,0,0,0,0,0,0,0,0,0,0,0,0,0,0,0,0,0,0,0,0,0,0,0,0,0,0,0,0,0,0,0,0,0,0,0,0,0,0,0,0,0,0,0,0,0,0,0,0,0,0,0,0,-1.5418,-1.5419,0,-1.5516,-1.5517,-1.5518,-1.5494,-1.5493,-1.5491,-1.5489,-1.5592,-1.5597,-1.5601,0,0,0,0,0,0,0,0,0,0,0,0,0,-1.5212,-1.5216,-1.5418,-1.5419,-1.542,-1.5516,-1.5517,-1.5518,-1.5495,-1.5492,-1.549,-1.5488,-1.5591,-1.5596,-1.5601,0,0,0,0,0,0,0,0,0,0,0,0,0,-1.5305,-1.5217,-1.5417,-1.542,-1.5421,-1.5515,-1.5517,-1.5519,-1.5495,-1.5492,-1.549,-1.5487,-1.5589,-1.5595,-1.5602,-1.5701,0,0,-1.5623,-1.5626,0,0,0,0,0,0,0,0,-1.5299,-1.5312,-1.5418,-1.542,-1.5421,-1.549,-1.5482,-1.558,-1.5496,-1.5467,-1.5489,-1.5485,-1.5561,-1.557,-1.5594,-1.5706,-1.5711,-1.5624,-1.5628,-1.5631,-1.5632,0,0,0,0,0,0,0,-1.5293,-1.5308,-1.5457,-1.542,-1.5422,-1.5417,-1.5427,-1.5501,-1.5529,-1.5469,-1.5468,-1.548,-1.5561,-1.5588,-1.5597,-1.5712,-1.5623,-1.5629,-1.5634,-1.5636,-1.5912,-1.5915,0,0,0,0,0,0,-1.5285,-1.5303,-1.5453,-1.5459,-1.5352,-1.5423,-1.5434,-1.5471,-1.5528,-1.5534,-1.5482,-1.5478,-1.5578,-1.5589,-1.56,-1.5721,-1.563,-1.5637,-1.5641,-1.5908,-1.5912,-1.5916,0,0,0,0,0,0,-1.5281,-1.5299,-1.5449,-1.5381,-1.54,-1.5429,-1.5471,-1.5474,-1.5501,-1.5537,-1.5543,-1.5504,-1.5576,-1.5591,-1.5676,-1.5725,-1.564,-1.5646,-1.5905,-1.591,-1.5914,-1.5964,0,0,0,0,0,0,-1.5275,-1.5297,-1.5335,-1.5382,-1.5403,-1.5524,-1.5474,-1.5478,-1.5513,-1.5509,-1.556,-1.5565,-1.5575,-1.5666,-1.5683,-1.5732,-1.5651,-1.59,-1.5907,-1.5913,-1.5958,-1.597,-1.598,0,0,0,0,0,-1.5268,-1.5345,-1.5337,-1.5355,-1.5451,-1.5526,-1.5539,-1.5547,-1.5517,-1.5555,-1.5578,-1.5564,-1.5716,-1.5675,-1.5694,-1.5746,-1.5897,-1.5905,-1.5912,-1.5953,-1.5968,-1.598,0,0,0,0,0,0,-1.5304,-1.5351,-1.5343,-1.5437,-1.5478,-1.5522,-1.5571,-1.5562,-1.5613,-1.5607,-1.5616,-1.5627,-1.5716,-1.5739,-1.5693,-1.5846,-1.5803,-1.5814,-1.5827,-1.5841,-1.5852,-1.5846,-1.5657,0,0,0,0,0,-1.5322,-1.5379,-1.5418,-1.5498,-1.5519,-1.5541,-1.5575,-1.5577,-1.562,-1.5638,-1.5667,-1.571,-1.5767,-1.5805,-1.586,-1.5961,-1.5972,-1.6006,-1.6016,-1.6025,-1.6036,-1.6092,-1.6108,-1.594,-1.594,-1.594,0,0,-1.5363,-1.5395,-1.5431,-1.5506,-1.5538,-1.5598,-1.5556,-1.5621,-1.5665,-1.5648,-1.5731,-1.5754,-1.5802,-1.5896,-1.5939,-1.5919,-1.6084,-1.6034,-1.6041,-1.6047,-1.6101,-1.6117,-1.6131,-1.5945,-1.5944,-1.5943,0,0,-1.5466,-1.5496,-1.5567,-1.5599,-1.5648,-1.5662,-1.5679,-1.5725,-1.5739,-1.5822,-1.5811,-1.5864,-1.5963,-1.5998,-1.6029,-1.6146,-1.6135,-1.6163,-1.6221,-1.6276,-1.6289,-1.6301,-1.6345,-1.636,-1.6173,-1.6173,-1.6173,0,-1.551,-1.5599,-1.5604,-1.5671,-1.5705,-1.569,-1.5762,-1.5794,-1.5858,-1.5882,-1.5858,-1.5982,-1.6013,-1.6116,-1.6144,-1.6169,-1.619,-1.6159,-1.6287,-1.6299,-1.631,-1.6352,-1.6368,-1.6177,-1.6176,-1.6176,-1.6175,0,-1.5651,-1.5713,-1.5764,-1.5826,-1.5866,-1.5935,-1.5952,-1.5991,-1.599,-1.6008,-1.6093,-1.613,-1.6193,-1.6217,-1.6217,-1.632,-1.6306,-1.6284,-1.6241,-1.6329,-1.6369,-1.6385,-1.6181,-1.618,-1.6179,-1.6178,0,0,-1.5782,-1.5846,-1.5865,-1.5893,-1.5945,-1.5994,-1.6062,-1.6122,-1.6157,-1.6201,-1.626,-1.6344,-1.6324,-1.6359,-1.6363,-1.6411,-1.6503,-1.6383,-1.6384,-1.6406,-1.6621,-1.6639,-1.6658,-1.6495,-1.6498,-1.6501,-1.6618,0,-1.5892,-1.6013,-1.6019,-1.6129,-1.6187,-1.6173,-1.6233,-1.6272,-1.629,-1.6343,-1.6362,-1.6422,-1.639,-1.6412,-1.6458,-1.6482,-1.6547,-1.6473,-1.6552,-1.6555,-1.6543,-1.6678,-1.6697,-1.6806,-1.6633,-1.6636,-1.6638,0,-1.6037,-1.6086,-1.6201,-1.6245,-1.627,-1.6324,-1.638,-1.643,-1.6474,-1.6484,-1.6523,-1.652,-1.6591,-1.6544,-1.6643,-1.6593,-1.6625,-1.6642,-1.6646,-1.6656,-1.6603,-1.6694,-1.6841,-1.6858,-1.6662,-1.666,-1.6658,0,-1.6124,-1.6218,-1.6299,-1.6323,-1.6377,-1.6415,-1.6439,-1.648,-1.6517,-1.6566,-1.659,-1.6647,-1.6679,-1.6724,-1.6737,-1.6701,-1.6837,-1.679,-1.6848,-1.6848,-1.6879,-1.6878,-1.7037,-1.6896,-1.6896,-1.6896,-1.6895,0,-1.6247,-1.6319,-1.6339,-1.6389,-1.6469,-1.6476,-1.6556,-1.6577,-1.6614,-1.6669,-1.6661,-1.6713,-1.6725,-1.678,-1.6791,-1.6873,-1.6886,-1.6898,-1.69,-1.69,-1.6899,-1.6923,-1.6917,-1.69,-1.6899,-1.6898,-1.6898,0,-1.6358,-1.6374,-1.6463,-1.6506,-1.6518,-1.6576,-1.6613,-1.6662,-1.6678,-1.6748,-1.6765,-1.6791,-1.6855,-1.6872,-1.6948,-1.6955,-1.7053,-1.7047,-1.7038,-1.7038,-1.7096,-1.7092,-1.7278,-1.7304,-1.7145,-1.7146,-1.7147,0,-1.6437,-1.6492,-1.6541,-1.6577,-1.6603,-1.6661,-1.6697,-1.6706,-1.6745,-1.68,-1.6843,-1.6905,-1.6956,-1.706,-1.7086,-1.7145,-1.7142,-1.7203,-1.7151,-1.7149,-1.7146,-1.7143,-1.715,-1.7214,-1.7216,-1.7217,-1.7218,0,-1.6576,-1.6581,-1.6634,-1.6691,-1.6735,-1.678,-1.6823,-1.6853,-1.6868,-1.6912,-1.6977,-1.7017,-1.7095,-1.7158,-1.7217,-1.7243,-1.7235,-1.7234,-1.7251,-1.7253,-1.7246,-1.7253,-1.7067,-1.723,-1.7229,-1.7228,-1.7228,-1.7227,-1.6675,-1.6724,-1.6766,-1.6826,-1.6859,-1.6899,-1.6948,-1.6969,-1.7024,-1.7088,-1.7089,-1.7161,-1.7204,-1.7283,-1.7312,-1.7369,-1.7351,-1.7375,-1.7381,-1.7388,-1.7394,-1.7235,-1.7379,-1.7379,-1.7379,-1.7379,-1.7378,0,-1.6816,-1.6842,-1.6897,-1.6957,-1.7004,-1.6989,-1.7036,-1.7077,-1.714,-1.7181,-1.7231,-1.7307,-1.7368,-1.7399,-1.746,-1.7499,-1.7497,-1.7515,-1.7514,-1.752,-1.7406,-1.7386,-1.7516,-1.7516,-1.7516,-1.7516,-1.7516,-1.7516,-1.6895,-1.6977,-1.6987,-1.7085,-1.7111,-1.7181,-1.7209,-1.7246,-1.7279,-1.7364,-1.7414,-1.7433,-1.7471,-1.7535,-1.7591,-1.7598,-1.7622,-1.7643,-1.7649,-1.7542,-1.7528,-1.7515,-1.7496,-1.7648,-1.7648,-1.7759,-1.776,-1.7761]},{"header":{"parameterUnit":"m.s-1","parameterCategory":1,"la1":30.2991,"la2":30.254,"lo1":-89.0895,"lo2":-89.0444,"dy":0.0017,"dx":0.0017,"nx":28,"ny":28,"refTime":"2024-10-08T09:00:00:Z","depth":0,"parameterNumber":3,"parameterNumberName":"V-component_of_WINDS"},"data":[0,0,0,0,0,0,0,0,0,0,0,0,0,0,0,0,0,0,0,0,0,0,0,0,0,0,0,0,0,0,0,0,0,0,0,0,0,0,0,0,0,0,0,0,0,0,0,0,0,0,0,0,0,0,0,0,0,0,-5.4261,-5.4261,0,-5.4348,-5.4349,-5.435,-5.4269,-5.4266,-5.4262,-5.4259,-5.4346,-5.4351,-5.4356,0,0,0,0,0,0,0,0,0,0,0,0,0,-5.4019,-5.4024,-5.426,-5.4262,-5.4263,-5.4348,-5.4349,-5.4351,-5.427,-5.4266,-5.4262,-5.4258,-5.4344,-5.435,-5.4357,0,0,0,0,0,0,0,0,0,0,0,0,0,-5.4117,-5.4026,-5.426,-5.4233,-5.4231,-5.4348,-5.4349,-5.4351,-5.427,-5.4265,-5.4261,-5.4256,-5.4342,-5.435,-5.4358,-5.4505,0,0,-5.4382,-5.4386,0,0,0,0,0,0,0,0,-5.4112,-5.4126,-5.4236,-5.4235,-5.4233,-5.4293,-5.4296,-5.4402,-5.4272,-5.4255,-5.4259,-5.4254,-5.4332,-5.434,-5.4367,-5.4509,-5.4513,-5.4383,-5.4388,-5.4391,-5.4393,0,0,0,0,0,0,0,-5.4105,-5.4122,-5.4295,-5.4237,-5.4236,-5.4215,-5.4223,-5.4316,-5.432,-5.4256,-5.4251,-5.4262,-5.433,-5.436,-5.4369,-5.4514,-5.4383,-5.439,-5.4395,-5.4398,-5.4782,-5.4787,0,0,0,0,0,0,-5.4102,-5.4117,-5.4292,-5.4298,-5.4159,-5.4223,-5.4233,-5.4278,-5.4319,-5.432,-5.4266,-5.4258,-5.4349,-5.436,-5.4372,-5.4548,-5.4391,-5.4399,-5.4403,-5.4776,-5.4783,-5.4789,0,0,0,0,0,0,-5.4097,-5.4118,-5.4289,-5.4206,-5.4226,-5.4232,-5.4285,-5.4283,-5.4313,-5.4326,-5.4326,-5.4296,-5.4345,-5.436,-5.4473,-5.4549,-5.4402,-5.4409,-5.477,-5.4778,-5.4786,-5.4901,0,0,0,0,0,0,-5.409,-5.4117,-5.4174,-5.4208,-5.4231,-5.439,-5.4289,-5.4288,-5.4327,-5.4317,-5.4354,-5.4356,-5.4343,-5.4461,-5.4481,-5.4558,-5.4416,-5.4763,-5.4774,-5.4783,-5.489,-5.4912,-5.493,0,0,0,0,0,-5.4082,-5.4202,-5.4177,-5.4199,-5.4302,-5.4395,-5.4407,-5.4391,-5.4334,-5.439,-5.4399,-5.4355,-5.4538,-5.4474,-5.4495,-5.4575,-5.4758,-5.4771,-5.4782,-5.4881,-5.4907,-5.493,0,0,0,0,0,0,-5.4175,-5.4206,-5.4179,-5.4313,-5.4352,-5.4381,-5.4452,-5.4419,-5.4474,-5.4462,-5.4438,-5.4447,-5.4566,-5.4582,-5.451,-5.472,-5.4638,-5.4655,-5.4706,-5.4731,-5.4751,-5.4745,-5.4422,0,0,0,0,0,-5.4212,-5.4286,-5.4307,-5.4424,-5.4445,-5.4446,-5.4485,-5.4469,-5.4508,-5.4523,-5.454,-5.4579,-5.4644,-5.4689,-5.475,-5.4891,-5.4898,-5.4957,-5.4977,-5.4994,-5.5009,-5.5085,-5.5112,-5.4828,-5.4828,-5.4828,0,0,-5.4288,-5.4313,-5.4361,-5.4444,-5.4472,-5.4548,-5.446,-5.4544,-5.4599,-5.4535,-5.4643,-5.4657,-5.4698,-5.4826,-5.4883,-5.4843,-5.5089,-5.5009,-5.5022,-5.5028,-5.51,-5.5127,-5.5151,-5.4837,-5.4835,-5.4834,0,0,-5.4465,-5.4492,-5.4592,-5.4623,-5.4667,-5.4666,-5.4691,-5.4724,-5.4732,-5.484,-5.4794,-5.4859,-5.4973,-5.5005,-5.5035,-5.5225,-5.5186,-5.5246,-5.5351,-5.5425,-5.5448,-5.5467,-5.5536,-5.556,-5.526,-5.5261,-5.5261,0,-5.4553,-5.4667,-5.4648,-5.4736,-5.4773,-5.472,-5.4821,-5.4851,-5.4913,-5.494,-5.4893,-5.5036,-5.506,-5.5195,-5.5241,-5.5268,-5.5294,-5.5242,-5.5446,-5.5466,-5.5484,-5.5549,-5.5574,-5.5268,-5.5267,-5.5266,-5.5266,0,-5.4774,-5.4853,-5.4929,-5.4992,-5.5038,-5.5132,-5.5126,-5.5174,-5.5154,-5.5158,-5.5269,-5.5296,-5.5362,-5.5392,-5.5373,-5.5525,-5.5499,-5.545,-5.5367,-5.5518,-5.5579,-5.5603,-5.5278,-5.5275,-5.5273,-5.5271,0,0,-5.5013,-5.5064,-5.5092,-5.512,-5.5165,-5.5226,-5.5317,-5.5383,-5.5426,-5.547,-5.5546,-5.5644,-5.5599,-5.5635,-5.5618,-5.5683,-5.5833,-5.5626,-5.5627,-5.5665,-5.6002,-5.6039,-5.6069,-5.5807,-5.5812,-5.5815,-5.5999,0,-5.5192,-5.5353,-5.5338,-5.549,-5.5563,-5.5513,-5.5593,-5.5629,-5.5635,-5.5697,-5.5703,-5.5774,-5.5709,-5.573,-5.5793,-5.5801,-5.59,-5.5788,-5.5877,-5.588,-5.5869,-5.61,-5.6139,-5.6312,-5.6022,-5.6026,-5.6029,0,-5.5423,-5.5477,-5.5637,-5.5672,-5.5702,-5.5774,-5.5833,-5.5894,-5.5933,-5.5932,-5.5973,-5.5945,-5.6036,-5.5951,-5.6076,-5.6,-5.6035,-5.6045,-5.6051,-5.6059,-5.5965,-5.6115,-5.6366,-5.6393,-5.6066,-5.6063,-5.6061,0,-5.5583,-5.5695,-5.5805,-5.583,-5.5873,-5.5925,-5.5945,-5.598,-5.602,-5.6072,-5.6098,-5.6159,-5.6193,-5.624,-5.623,-5.6169,-5.6358,-5.6272,-5.636,-5.636,-5.6402,-5.64,-5.6664,-5.6424,-5.6424,-5.6423,-5.6423,0,-5.5785,-5.5885,-5.5878,-5.5946,-5.6056,-5.6037,-5.6146,-5.616,-5.6191,-5.626,-5.622,-5.6285,-5.6266,-5.6331,-5.6323,-5.6428,-5.6443,-5.6445,-5.6442,-5.6449,-5.6449,-5.6473,-5.6461,-5.643,-5.6429,-5.6427,-5.6426,0,-5.5982,-5.5981,-5.6098,-5.613,-5.614,-5.622,-5.6246,-5.6309,-5.6312,-5.64,-5.642,-5.6424,-5.6498,-5.6492,-5.6574,-5.6568,-5.6699,-5.6681,-5.6686,-5.6683,-5.6772,-5.6764,-5.706,-5.7098,-5.6833,-5.6836,-5.6838,0,-5.6112,-5.6188,-5.6228,-5.6272,-5.6296,-5.6367,-5.6409,-5.6393,-5.6438,-5.6489,-5.6547,-5.6617,-5.6672,-5.6792,-5.6802,-5.6865,-5.6849,-5.6948,-5.6858,-5.6863,-5.6851,-5.6847,-5.6855,-5.6966,-5.6969,-5.6972,-5.6974,0,-5.6343,-5.6339,-5.6401,-5.6465,-5.6516,-5.6565,-5.6609,-5.6647,-5.6635,-5.6688,-5.6764,-5.6807,-5.6892,-5.6962,-5.7022,-5.7041,-5.7006,-5.7002,-5.7026,-5.7035,-5.7035,-5.7037,-5.6736,-5.6995,-5.6993,-5.6992,-5.699,-5.6989,-5.6511,-5.6576,-5.6615,-5.6686,-5.6718,-5.676,-5.6822,-5.6833,-5.6896,-5.6965,-5.6952,-5.7037,-5.7074,-5.7151,-5.7176,-5.7241,-5.7205,-5.724,-5.7249,-5.7258,-5.7269,-5.7024,-5.7252,-5.7251,-5.7251,-5.725,-5.725,0,-5.674,-5.6763,-5.6828,-5.6892,-5.6949,-5.6911,-5.6958,-5.7007,-5.7084,-5.7121,-5.7177,-5.7264,-5.7332,-5.7348,-5.7413,-5.7462,-5.7448,-5.748,-5.7477,-5.7482,-5.7296,-5.727,-5.7491,-5.7491,-5.7491,-5.7491,-5.7491,-5.7491,-5.6866,-5.6975,-5.6976,-5.71,-5.7121,-5.7206,-5.7236,-5.7275,-5.7305,-5.7405,-5.7462,-5.7471,-5.75,-5.7567,-5.7628,-5.763,-5.7657,-5.7695,-5.7692,-5.7519,-5.7495,-5.7472,-5.7447,-5.7701,-5.7701,-5.7872,-5.7873,-5.7874]}]]